Weather History for Prestonsburg, KY

Change the Weather History Date:

Tuesday, February 19, 2013

  Actual Average (KJKL) Record (KJKL)
Temperature  
Mean Temperature 44 °F 40 °F  
Max Temperature 50 °F 49 °F 74 °F (1994)
Min Temperature 38 °F 31 °F 5 °F (1993)
Degree Days  
Heating Degree Days 21 25  
Month to date heating degree days 519  
Since 1 July heating degree days 3085  
Cooling Degree Days 0 0  
Month to date cooling degree days 0  
Year to date cooling degree days 0  
Moisture  
Dew Point 31 °F    
Average Humidity 62    
Maximum Humidity 91    
Minimum Humidity 35    
Precipitation  
Precipitation 0.00 in 0.13 in 0.91 in (1991)
Month to date precipitation 2.52  
Year to date precipitation 6.13  
Snow  
Snow 0.00 in 0.20 in - ()
Month to date snowfall 5.2  
Since 1 July snowfall 17.8  
Snow Depth -    
Sea Level Pressure  
Sea Level Pressure 29.86 in    
Wind  
Wind Speed 14 mph (WSW)    
Max Wind Speed 29 mph    
Max Gust Speed 37 mph    
Visibility 10 miles    
Events Rain    
T = Trace of Precipitation, MM = Missing Value Source: NWS Daily Summary

Daily Weather History Graph

Daily Weather History Graph

Search for Another Location

Airport:

Trip Planner

Search our weather history database for the weather conditions in past years. The results will help you decide how hot, cold, wet, or windy it might be!

Date:

Astronomy

Feb. 19, 2013 Rise Set
Actual Time 7:15 AM EST 6:14 PM EST
Civil Twilight 6:48 AM EST 6:40 PM EST
Nautical Twilight 6:17 AM EST 7:11 PM EST
Astronomical Twilight 5:47 AM EST 7:41 PM EST
Moon 12:48 PM EST (2/19) 2:42 AM EST (2/19)
Length of Visible Light 11h 52m
Length of Day
10h 59m
Waxing Gibbous, 67% of the Moon is Illuminated
Feb 19
Waxing Gibbous
Feb 25
Full
Mar 4
Last Quarter
Mar 11
New
Mar 19
First Quarter

Hourly Weather History & Observations

Time (EST) Temp. Windchill Dew Point Humidity Pressure Visibility Wind Dir Wind Speed Gust Speed Precip Events Conditions
12:15 AM 49.1 °F - 24.8 °F 39% 29.87 in 10.0 mi South 15.0 mph 20.7 mph N/A   Scattered Clouds
12:35 AM 49.3 °F - 24.6 °F 38% 29.87 in 10.0 mi South 11.5 mph 20.7 mph N/A   Mostly Cloudy
12:55 AM 49.1 °F - 24.8 °F 39% 29.87 in 10.0 mi South 12.7 mph - N/A   Mostly Cloudy
1:15 AM 48.6 °F - 25.2 °F 40% 29.87 in 10.0 mi South 9.2 mph - N/A   Mostly Cloudy
1:35 AM 48.6 °F - 25.3 °F 40% 29.86 in 10.0 mi South 8.1 mph - N/A   Scattered Clouds
1:55 AM 49.3 °F - 24.8 °F 38% 29.86 in 10.0 mi SSW 6.9 mph - N/A   Mostly Cloudy
2:15 AM 49.3 °F - 25.3 °F 39% 29.87 in 10.0 mi WSW 4.6 mph - N/A   Overcast
2:35 AM 50.0 °F - 25.3 °F 38% 29.87 in 10.0 mi WSW 15.0 mph 24.2 mph N/A   Overcast
2:55 AM 48.6 °F - 30.0 °F 49% 29.88 in 10.0 mi SSW 28.8 mph 36.8 mph N/A Rain Light Rain
3:15 AM 44.4 °F 37.2 °F 35.8 °F 72% 29.86 in 10.0 mi SSW 16.1 mph 27.6 mph N/A Rain Light Rain
3:35 AM 44.6 °F 38.4 °F 35.8 °F 71% 29.86 in 10.0 mi SW 12.7 mph 23.0 mph N/A Rain Light Rain
3:55 AM 43.2 °F 34.5 °F 36.7 °F 78% 29.84 in 10.0 mi South 20.7 mph 27.6 mph N/A Rain Light Rain
4:15 AM 42.8 °F 34.8 °F 36.7 °F 79% 29.84 in 10.0 mi South 17.3 mph 25.3 mph N/A   Light Drizzle
4:35 AM 42.8 °F 34.5 °F 37.0 °F 80% 29.84 in 10.0 mi South 18.4 mph - N/A   Overcast
4:55 AM 42.8 °F 34.8 °F 36.7 °F 79% 29.83 in 10.0 mi South 17.3 mph 23.0 mph N/A   Overcast
5:15 AM 43.0 °F 36.4 °F 36.5 °F 78% 29.84 in 10.0 mi SSW 12.7 mph 26.5 mph N/A   Overcast
5:35 AM 43.2 °F 35.6 °F 36.5 °F 77% 29.84 in 10.0 mi SSW 16.1 mph - N/A   Overcast
5:55 AM 43.2 °F 35.9 °F 36.1 °F 76% 29.84 in 10.0 mi SSW 15.0 mph 25.3 mph N/A   Overcast
6:55 AM 42.4 °F 35.7 °F 36.9 °F 81% 29.82 in 10.0 mi SSW 12.7 mph 16.1 mph N/A   Light Drizzle
7:15 AM 43.0 °F 37.2 °F 36.5 °F 78% 29.82 in 10.0 mi SSW 10.4 mph 20.7 mph N/A   Overcast
7:35 AM 43.7 °F 37.7 °F 36.5 °F 76% 29.82 in 10.0 mi SSW 11.5 mph 21.9 mph N/A   Overcast
7:55 AM 43.3 °F 35.8 °F 36.5 °F 77% 29.82 in 10.0 mi SW 16.1 mph 23.0 mph N/A   Light Drizzle
8:15 AM 43.7 °F 36.6 °F 36.5 °F 76% 29.83 in 10.0 mi SW 15.0 mph 25.3 mph N/A   Overcast
8:35 AM 43.3 °F 35.5 °F 36.5 °F 77% 29.83 in 10.0 mi SW 17.3 mph 24.2 mph N/A   Overcast
8:55 AM 43.7 °F 38.1 °F 36.9 °F 77% 29.83 in 10.0 mi SW 10.4 mph 20.7 mph N/A   Light Drizzle
9:15 AM 43.7 °F 38.6 °F 37.4 °F 78% 29.84 in 10.0 mi WSW 9.2 mph 16.1 mph N/A   Overcast
9:35 AM 43.7 °F 37.7 °F 37.8 °F 80% 29.84 in 10.0 mi WSW 11.5 mph 18.4 mph N/A   Light Drizzle
9:55 AM 43.9 °F 36.5 °F 37.6 °F 78% 29.84 in 10.0 mi West 16.1 mph 21.9 mph N/A   Overcast
10:15 AM 44.1 °F 37.1 °F 37.4 °F 77% 29.85 in 10.0 mi WSW 15.0 mph 25.3 mph N/A   Overcast
10:35 AM 41.4 °F 34.0 °F 38.3 °F 89% 29.87 in 3.0 mi West 13.8 mph 24.2 mph N/A Rain Light Rain
10:55 AM 38.8 °F 31.6 °F 36.5 °F 91% 29.88 in 5.0 mi WNW 11.5 mph 24.2 mph N/A   Drizzle
11:15 AM 38.5 °F 29.9 °F 35.6 °F 89% 29.89 in 10.0 mi West 15.0 mph 25.3 mph N/A   Overcast
11:35 AM 39.7 °F 31.5 °F 35.4 °F 85% 29.89 in 10.0 mi West 15.0 mph 20.7 mph N/A   Overcast
11:55 AM 39.7 °F 31.2 °F 34.7 °F 82% 29.89 in 7.0 mi WSW 16.1 mph 25.3 mph N/A   Overcast
12:15 PM 42.6 °F 35.6 °F 35.8 °F 77% 29.88 in 10.0 mi WSW 13.8 mph 21.9 mph N/A   Mostly Cloudy
12:35 PM 43.9 °F 36.5 °F 33.3 °F 66% 29.87 in 10.0 mi West 16.1 mph 23.0 mph N/A   Scattered Clouds
12:55 PM 45.7 °F 40.2 °F 32.2 °F 59% 29.87 in 10.0 mi West 11.5 mph 21.9 mph N/A   Mostly Cloudy
1:15 PM 45.0 °F 38.2 °F 28.9 °F 53% 29.87 in 10.0 mi West 15.0 mph 29.9 mph N/A   Overcast
1:35 PM 44.1 °F 36.5 °F 28.2 °F 54% 29.86 in 10.0 mi West 17.3 mph 27.6 mph N/A   Overcast
1:55 PM 45.9 °F 38.8 °F 29.3 °F 52% 29.87 in 10.0 mi West 17.3 mph 21.9 mph N/A   Mostly Cloudy
2:15 PM 45.5 °F 38.9 °F 27.0 °F 48% 29.87 in 10.0 mi West 15.0 mph 25.3 mph N/A   Mostly Cloudy
2:35 PM 45.7 °F 39.1 °F 23.4 °F 41% 29.87 in 10.0 mi West 15.0 mph 26.5 mph N/A   Mostly Cloudy
2:55 PM 47.5 °F - 23.4 °F 39% 29.87 in 10.0 mi West 13.8 mph 26.5 mph N/A   Mostly Cloudy
3:15 PM 45.0 °F 37.9 °F 21.4 °F 39% 29.88 in 10.0 mi WNW 16.1 mph 26.5 mph N/A   Overcast
3:35 PM 45.9 °F 39.1 °F 21.9 °F 39% 29.89 in 10.0 mi West 16.1 mph 29.9 mph N/A   Overcast
3:55 PM 44.1 °F 36.5 °F 22.5 °F 42% 29.90 in 10.0 mi WNW 17.3 mph 29.9 mph N/A   Overcast
4:15 PM 44.1 °F 37.1 °F 19.4 °F 37% 29.91 in 10.0 mi West 15.0 mph 26.5 mph N/A   Mostly Cloudy
4:35 PM 42.3 °F 33.6 °F 16.5 °F 35% 29.92 in 10.0 mi West 19.6 mph 27.6 mph N/A   Scattered Clouds
4:55 PM 42.4 °F 34.1 °F 17.1 °F 36% 29.92 in 10.0 mi WNW 18.4 mph 31.1 mph N/A   Clear
5:15 PM 41.9 °F 35.0 °F 15.8 °F 35% 29.94 in 10.0 mi WNW 12.7 mph 31.1 mph N/A   Clear